RH
30 40 43 34 31 26 27 30 34 30 23 23 24 20 21 26 35 47 59 61 64 69 73 71 72 67 65 62 58 56 57 64 64 64 64 59 65 66 68 71 70 68 71 76
32 42 35 30 30 32 34 36 38 30 23 24 26 28 26 25 34 37 55 60 66 80 79 78 76 70 65 65 60 58 61 63 62 63 70 69 64 70 74 76 74 72 69 75
34 27 27 30 30 31 33 35 33 30 26 24 28 29 25 25 41 48 44 54 63 76 81 79 78 74 70 66 62 58 60 61 64 67 63 61 51 49 61 67 72 69 68 71
36 31 33 33 34 32 36 28 26 27 31 38 27 44 28 27 42 58 62 67 77 77 77 77 79 78 70 71 65 61 59 57 60 57 50 37 39 53 72 71 75 69 63 66
32 28 29 29 26 25 30 23 25 27 32 36 36 40 34 51 44 57 69 75 81 83 80 79 75 74 73 72 72 66 61 56 60 58 47 39 38 48 53 51 51 47 53 56
34 27 26 29 25 22 22 26 37 48 44 51 38 39 34 52 52 60 61 70 79 79 74 74 73 74 76 77 70 72 63 65 58 53 39 24 28 41 38 43 44 44 42 42
30 29 29 27 30 25 27 36 56 56 65 51 37 41 36 54 62 65 67 72 76 70 75 81 82 78 80 79 79 74 69 62 57 35 21 23 26 28 36 44 48 44 40 38
39 37 22 24 28 27 34 39 56 54 66 54 36 43 50 66 60 59 63 68 71 71 69 75 74 73 76 81 76 76 68 66 52 27 34 32 28 29 35 41 43 42 40 40
46 37 21 17 17 23 32 41 33 47 50 59 48 45 57 65 63 65 68 68 76 75 78 79 71 67 76 75 75 69 67 65 49 39 42 44 39 32 32 39 41 42 36 36
34 42 25 23 17 21 22 24 41 61 80 66 57 48 63 74 73 73 79 79 73 80 82 85 80 73 74 71 73 72 67 61 54 48 50 51 46 42 36 41 50 53 41 28
26 37 31 27 21 26 32 34 42 45 66 66 67 60 64 64 67 76 72 74 82 85 88 89 87 79 73 74 76 73 66 53 50 52 60 57 56 50 42 40 55 62 54 48
38 50 55 33 31 37 30 36 42 70 50 72 82 59 45 74 72 68 73 80 82 82 88 92 91 85 84 84 82 74 54 43 45 54 64 69 63 57 50 39 56 64 65 65
36 56 48 42 38 32 40 42 47 60 72 72 82 64 53 67 70 72 77 79 82 86 90 93 94 93 85 79 81 78 54 49 55 60 66 76 71 65 62 44 48 67 75 78
35 48 43 57 42 44 44 49 47 51 85 68 66 55 45 46 56 59 66 75 83 88 86 91 95 94 83 61 56 78 76 68 66 67 72 73 77 75 73 56 42 65 81 87
41 53 55 53 48 53 52 52 54 62 56 65 47 46 35 44 46 45 51 55 71 94 92 88 91 94 96 76 60 62 62 72 73 73 69 64 72 70 66 58 38 56 68 81
54 58 68 75 59 62 68 73 72 61 60 63 58 60 44 42 49 53 51 51 67 90 88 85 85 88 95 91 83 74 69 71 67 69 72 62 59 59 57 48 44 55 64 68
68 69 82 73 66 65 73 77 67 61 66 61 68 54 52 56 58 61 60 69 78 92 87 84 81 80 86 86 88 87 78 64 63 65 68 62 59 59 52 46 50 61 71 78
71 75 77 87 70 90 56 46 51 60 58 60 57 52 51 53 57 71 79 77 91 92 87 81 80 82 78 81 80 82 77 71 68 67 63 60 60 58 46 54 56 68 74 77
64 74 88 83 77 58 52 40 45 55 55 46 52 54 54 69 72 72 80 84 87 90 89 84 84 86 82 71 63 68 73 73 77 74 63 59 57 56 52 63 63 64 62 62
62 71 78 94 92 87 57 46 49 57 69 48 57 65 78 73 86 88 82 87 92 90 90 95 90 83 80 70 52 63 71 68 68 64 60 56 57 58 63 68 74 73 75 64
87 95 92 88 93 83 53 66 52 71 65 57 61 66 82 79 80 74 85 85 87 86 89 90 85 79 77 66 55 69 67 60 56 57 58 57 58 61 67 75 83 85 77 63
72 95 95 92 97 91 66 69 71 70 81 73 68 69 82 74 86 86 85 88 83 81 81 76 73 72 66 57 62 68 66 60 57 57 58 62 65 70 76 80 90 95 83 80
74 76 91 87 87 66 64 72 68 73 82 83 69 62 71 81 84 84 83 72 71 72 65 63 66 68 63 63 62 68 67 64 58 60 63 67 70 70 72 82 94 100 94 88
80 89 95 99 82 84 73 68 72 78 83 79 79 68 80 78 83 78 70 63 61 59 57 58 64 69 68 60 55 46 53 54 56 63 69 71 71 76 80 83 86 92 99 96
76 87 87 92 75 70 74 77 79 78 81 81 69 73 78 79 79 73 68 63 57 57 55 57 62 67 66 57 52 49 50 54 63 65 66 72 75 76 78 79 78 78 76 84
76 76 89 75 57 75 74 67 71 82 80 83 74 79 78 75 76 70 70 63 58 59 57 56 58 59 61 56 54 52 52 58 63 70 72 70 76 81 76 75 77 80 83 82
Wind_Speed
2 3 6 7 5 1 2 2 6 6 6 3 6 4 8 5 5 10 12 13 11 10 10 20 21 19 17 13 12 10 9 9 7 7 8 11 16 15 16 16 17 20 19 19
4 5 11 2 2 4 4 5 6 7 5 2 6 6 11 4 1 3 7 9 11 7 8 12 18 17 13 14 12 12 11 10 8 7 8 7 9 13 13 13 15 18 19 19
7 5 3 5 3 4 5 4 5 8 3 2 6 7 5 4 4 7 5 8 9 13 13 10 13 16 16 14 13 13 11 11 10 9 9 9 7 8 10 13 13 16 17 18
5 4 4 4 5 7 5 7 5 2 3 3 2 5 5 2 2 7 5 7 11 14 11 9 14 18 18 15 14 13 12 11 10 8 9 9 10 7 9 9 10 11 14 16
6 1 1 2 3 4 5 1 3 2 2 2 3 2 6 5 4 2 3 5 7 8 12 11 15 18 17 16 14 12 12 13 11 8 9 10 12 10 8 9 10 12 14 15
7 1 4 7 4 3 4 3 5 4 3 1 8 7 4 3 2 1 3 6 9 12 11 10 15 19 18 16 15 12 12 13 11 9 10 11 12 10 11 12 13 14 16 17
4 3 3 4 4 2 4 5 3 3 2 5 1 2 7 3 4 4 9 9 11 13 11 11 13 18 21 20 17 13 12 14 12 11 14 14 14 14 14 14 13 16 18 20
2 5 2 2 5 5 6 7 5 5 3 4 3 5 5 3 2 0 6 9 12 14 14 15 18 18 18 21 19 14 13 14 13 13 13 14 15 15 15 14 14 14 16 17
4 5 2 2 1 3 2 3 3 3 2 2 4 6 4 2 2 3 5 7 10 8 7 8 14 20 21 24 20 18 15 15 14 14 14 14 14 15 15 13 13 13 13 13
3 4 3 4 1 2 3 2 2 3 1 4 5 5 5 5 8 7 7 11 8 6 8 8 13 20 23 21 18 15 14 15 15 14 12 13 14 14 13 10 11 12 13 16
4 4 4 0 3 5 3 1 4 3 4 4 6 7 6 10 10 12 15 12 9 9 10 9 12 19 23 21 19 18 14 15 16 14 13 12 13 12 11 11 11 11 12 17
1 5 3 6 3 3 1 4 5 3 4 3 3 14 2 6 6 6 7 7 6 8 8 8 16 22 25 23 20 18 17 17 16 15 13 12 12 10 10 11 11 11 13 13
1 1 2 4 5 3 1 2 3 3 3 5 4 8 2 4 4 7 9 9 8 8 10 10 13 17 22 24 22 21 21 19 18 16 15 14 13 10 8 10 11 11 12 13
2 2 4 5 5 3 4 4 4 4 3 3 12 13 14 9 8 7 8 8 8 10 13 12 10 15 22 24 24 24 23 21 20 18 14 12 13 10 8 8 10 11 11 12
3 4 4 4 6 5 5 6 7 7 9 8 23 15 13 8 10 12 9 8 7 8 11 14 14 15 20 24 22 22 22 23 21 18 16 14 14 11 9 8 8 9 9 11
2 4 3 4 6 8 10 8 9 16 16 15 18 25 14 15 9 8 13 13 9 9 11 12 13 19 21 23 22 22 22 23 20 19 19 17 15 12 10 10 10 11 13 14
5 4 2 4 4 5 11 10 18 8 6 8 11 16 10 9 9 9 11 8 9 8 12 14 16 21 23 25 24 23 23 24 21 19 20 18 15 12 11 11 10 11 12 12
5 4 3 3 2 7 6 3 6 8 10 9 11 14 14 11 6 7 6 5 7 10 12 12 16 20 23 23 24 23 24 26 23 20 21 19 16 14 14 13 12 12 11 11
9 4 2 4 6 11 10 10 4 6 9 11 14 13 8 3 1 5 1 2 5 6 8 15 19 23 23 26 27 27 26 25 24 23 22 20 17 16 15 14 13 11 10 10
3 6 6 2 4 5 6 2 2 1 9 5 3 6 5 4 2 4 1 3 5 10 15 18 21 23 26 26 28 28 28 26 25 23 22 21 17 16 16 14 13 11 8 7
3 1 9 8 7 6 6 9 4 3 6 7 3 1 4 4 4 1 4 3 7 11 17 21 21 22 25 29 30 27 28 26 24 22 21 20 17 16 15 15 13 10 8 8
6 5 4 3 4 7 3 5 3 4 5 6 6 3 5 4 5 4 4 6 7 11 17 20 20 21 26 29 30 28 27 25 23 23 21 19 17 16 16 16 14 12 10 8
4 6 4 7 3 7 3 7 9 6 7 8 7 6 4 6 6 7 6 6 7 12 16 19 22 22 24 28 29 26 25 25 25 23 21 20 18 17 18 17 16 14 12 9
3 4 2 2 7 17 15 12 7 8 11 8 8 9 5 6 7 6 6 7 7 13 15 20 22 19 20 25 25 25 26 26 25 23 21 21 21 19 17 15 14 15 15 14
3 4 4 4 8 9 11 9 9 10 6 8 5 4 6 6 6 6 6 7 10 14 16 21 20 20 22 25 23 23 25 25 24 22 22 22 21 19 16 15 13 14 11 12
5 7 4 7 9 7 6 6 3 7 8 6 5 3 3 6 7 6 7 12 15 15 18 18 20 22 24 24 23 22 23 23 23 22 23 23 22 19 17 15 13 10 10 10
Wind_Direction
37 91 238 231 215 275 317 237 264 277 268 276 244 259 278 227 183 168 168 166 155 144 140 148 147 143 134 122 118 108 110 119 134 119 95 84 76 70 63 56 46 39 33 32
17 229 230 155 204 256 279 283 276 271 258 270 301 267 264 220 13 192 158 160 152 130 131 127 144 142 136 125 118 111 101 105 108 112 119 101 89 70 64 56 47 37 35 33
189 235 133 187 222 230 230 220 239 237 329 335 344 309 329 63 99 48 157 152 146 151 145 146 150 148 142 139 132 121 112 106 106 111 112 113 97 81 55 45 42 37 32 31
235 265 228 262 242 199 245 215 222 188 81 241 26 284 292 280 337 48 43 138 149 153 146 148 147 157 161 150 137 126 122 111 105 107 112 103 93 86 52 40 34 31 31 32
247 210 134 345 226 154 237 120 139 165 198 59 307 290 277 357 265 336 101 138 143 145 144 150 169 162 159 151 143 134 124 111 111 115 106 95 85 80 76 62 50 39 37 33
237 298 211 211 235 179 121 77 48 52 96 280 224 179 276 216 261 266 129 148 148 152 155 149 158 161 159 155 146 148 129 120 112 110 99 90 91 90 78 62 55 46 42 36
316 247 262 174 209 39 94 73 325 334 344 239 182 145 243 265 294 268 174 168 168 167 165 164 160 163 161 163 162 151 141 121 122 111 98 90 84 78 72 67 60 49 42 36
216 321 265 165 175 185 185 167 175 220 215 251 332 247 247 231 320 68 158 172 178 182 185 180 177 161 159 169 161 166 148 133 127 115 108 93 83 80 74 68 61 55 50 41
189 262 291 77 54 148 152 176 224 132 62 350 227 292 315 153 234 197 190 189 203 192 172 158 144 169 169 172 173 168 160 148 138 135 118 99 84 76 73 69 68 64 59 52
236 283 279 304 93 36 157 155 42 50 323 261 277 266 233 255 230 216 218 218 208 180 173 172 169 169 176 176 171 172 169 156 152 143 128 112 92 77 75 80 80 75 68 62
159 142 274 195 209 187 14 25 73 127 155 218 277 260 219 222 207 201 220 215 199 189 190 175 165 171 175 174 173 172 170 163 155 153 141 121 106 91 81 84 85 78 73 62
43 154 200 214 345 336 282 212 161 147 231 235 178 267 302 278 238 229 253 239 207 207 180 166 168 168 174 178 174 172 170 167 160 154 146 137 128 112 90 81 84 77 71 66
197 298 340 347 354 357 253 204 156 111 88 206 184 267 305 24 257 232 233 226 215 194 176 173 166 166 172 180 178 178 175 170 161 155 150 146 146 137 105 80 84 84 76 74
82 152 197 230 218 169 226 208 197 152 133 237 236 273 257 277 254 262 256 244 215 199 189 176 164 168 176 181 182 184 183 182 173 165 161 156 158 151 131 91 83 89 88 85
125 241 200 241 232 219 228 231 229 202 226 216 270 238 271 237 247 253 251 251 211 190 181 185 178 169 169 176 178 178 180 181 177 168 162 153 148 145 134 113 92 99 99 89
139 256 129 290 263 245 253 236 239 241 247 247 261 271 264 263 246 260 258 262 239 201 187 177 172 170 175 177 178 176 173 171 168 168 167 157 148 141 132 120 108 101 93 87
167 175 136 269 220 280 276 215 230 234 214 226 248 259 258 260 238 242 257 239 230 190 175 176 180 178 174 178 177 177 173 170 167 164 165 163 155 145 136 134 121 106 98 93
172 167 165 251 252 251 255 208 222 223 238 222 251 262 254 252 256 241 238 215 194 173 172 176 175 171 173 173 176 173 175 176 171 168 167 165 160 150 143 134 121 113 106 97
209 155 200 239 240 287 298 278 196 182 271 236 234 255 258 187 257 291 297 201 181 163 159 167 169 163 164 171 180 179 175 175 178 175 173 173 169 159 156 143 133 126 117 104
197 207 207 188 239 247 246 292 335 213 290 301 217 277 179 129 40 266 46 92 122 129 144 145 155 162 164 172 176 171 171 173 174 177 178 178 174 170 164 157 148 140 123 110
111 106 208 225 242 271 248 314 272 200 266 318 308 1 154 175 195 190 122 80 117 130 137 147 151 154 164 170 170 163 169 175 178 179 179 178 178 174 170 163 162 156 144 123
194 180 201 183 222 260 179 345 215 218 310 312 310 276 214 177 133 141 127 133 127 125 132 142 139 149 165 171 171 168 175 181 179 177 175 175 174 173 171 169 169 174 166 146
232 194 189 191 215 277 249 211 246 269 267 286 294 287 211 181 177 164 151 141 134 138 140 146 143 146 162 171 178 172 180 179 176 174 174 173 172 173 169 171 178 186 188 181
235 162 201 153 244 246 262 273 264 267 248 255 267 266 199 190 165 146 136 135 134 141 144 147 144 146 155 174 180 183 177 178 176 179 178 174 171 173 181 187 196 204 204 203
204 171 194 258 276 278 266 258 249 256 250 247 239 234 205 156 157 144 142 146 144 146 148 154 153 157 164 178 180 181 178 180 180 180 177 176 177 180 183 193 200 209 221 218
183 206 181 243 237 219 246 258 224 245 262 258 191 166 180 156 155 145 147 152 151 151 153 155 161 163 171 180 180 181 186 187 184 176 180 184 184 185 187 187 187 197 210 216